Location: Augustenthal
(51.7167°N, 10.2833°E)
Time: 21:38:58
(UTC+00:00)

ISS - Pass Details

Date: 21 September 2021
Orbit: 417 x 423 km, 51.6° (Epoch: 17 October)

Event Time Altitude Azimuth Distance (km) Brightness Sun altitude
Rises 19:36:19 0° 262° (W) 2,363 0.9 -21.1°
Reaches altitude 10° 19:38:24 10° 262° (W) 1,501 -0.3 -21.4°
Enters shadow 19:41:08 56° 258° (WSW) 507 -3.2 -21.8°
